Change the Weather History Date:

Thursday, July 4, 2013

  Actual Average Record
Temperature  
Mean Temperature 82 °F 83 °F  
Max Temperature 90 °F 90 °F 96 °F (1998)
Min Temperature 73 °F 76 °F 65 °F (1901)
Degree Days  
Heating Degree Days 0 0  
Month to date heating degree days 0 0  
Since 1 June heating degree days 0 0  
Since 1 July heating degree days 0 0  
Cooling Degree Days 17 18  
Month to date cooling degree days 63 72  
Year to date cooling degree days 1561 1465  
Since 1 June cooling degree days 586 588  
Growing Degree Days 32 (Base 50)    
Moisture  
Dew Point 72 °F    
Average Humidity 75    
Maximum Humidity 94    
Minimum Humidity 56    
Precipitation  
Precipitation 0.94 in 0.25 in 3.53 in (1936)
Month to date precipitation 2.20 1.01  
Year to date precipitation 22.62 19.89  
Sea Level Pressure  
Sea Level Pressure 30.12 in    
Wind  
Wind Speed 6 mph (ESE)    
Max Wind Speed 16 mph    
Max Gust Speed 26 mph    
Visibility 8 miles    
Events Rain , Thunderstorm    
T = Trace of Precipitation, MM = Missing Value Source: NWS Daily Summary

Daily Weather History Graph

Daily Weather History Graph

Search for Another Location

Airport or City:

Trip Planner

Search our weather history database for the weather conditions in past years. The results will help you decide how hot, cold, wet, or windy it might be!

Date:

Astronomy

Jul. 04, 2013 Rise Set
Actual Time 6:38 AM EDT 8:30 PM EDT
Civil Twilight 6:12 AM EDT 8:56 PM EDT
Nautical Twilight 5:40 AM EDT 9:28 PM EDT
Astronomical Twilight 5:06 AM EDT 10:02 PM EDT
Moon 3:48 AM EDT (7/4) 5:39 PM EDT (7/4)
Length of Visible Light 14h 44m
Length of Day
13h 51m
Waning Crescent, 11% of the Moon is Illuminated
Jul 4
Waning Crescent
Jul 8
New
Jul 15
First Quarter
Jul 22
Full
Jul 29
Last Quarter

Hourly Weather History & Observations

Time (EDT) Temp. Heat Index Dew Point Humidity Pressure Visibility Wind Dir Wind Speed Gust Speed Precip Events Conditions
12:53 AM 75.0 °F - 73.0 °F 94% 30.12 in 10.0 mi Calm Calm - N/A   Mostly Cloudy
1:53 AM 75.0 °F - 73.0 °F 94% 30.12 in 10.0 mi Calm Calm - N/A   Scattered Clouds
2:53 AM 75.0 °F - 72.0 °F 90% 30.09 in 10.0 mi ESE 4.6 mph - N/A   Scattered Clouds
3:53 AM 75.0 °F - 72.0 °F 90% 30.08 in 10.0 mi East 4.6 mph - N/A   Scattered Clouds
4:53 AM 73.9 °F - 72.0 °F 93% 30.08 in 10.0 mi East 3.5 mph - N/A   Mostly Cloudy
5:53 AM 73.9 °F - 71.1 °F 91% 30.08 in 10.0 mi East 3.5 mph - N/A   Scattered Clouds
6:53 AM 73.9 °F - 71.1 °F 91% 30.09 in 10.0 mi ESE 4.6 mph - N/A   Mostly Cloudy
7:53 AM 75.9 °F - 71.1 °F 85% 30.11 in 10.0 mi ESE 3.5 mph - N/A   Scattered Clouds
8:53 AM 79.0 °F - 72.0 °F 79% 30.12 in 10.0 mi ESE 6.9 mph - N/A   Mostly Cloudy
9:53 AM 81.0 °F 86.2 °F 73.9 °F 79% 30.12 in 10.0 mi SE 6.9 mph 16.1 mph N/A   Mostly Cloudy
10:53 AM 84.0 °F 91.2 °F 73.9 °F 72% 30.13 in 10.0 mi SSE 9.2 mph 17.3 mph N/A   Mostly Cloudy
11:53 AM 84.9 °F 91.4 °F 73.0 °F 67% 30.13 in 10.0 mi SSE 11.5 mph 18.4 mph N/A   Overcast
12:53 PM 86.0 °F 92.2 °F 72.0 °F 63% 30.13 in 10.0 mi South 9.2 mph 16.1 mph N/A   Overcast
1:53 PM 87.1 °F 93.6 °F 72.0 °F 61% 30.12 in 10.0 mi South 10.4 mph 17.3 mph N/A   Overcast
2:53 PM 89.1 °F 95.0 °F 71.1 °F 55% 30.10 in 10.0 mi SSE 8.1 mph - N/A   Mostly Cloudy
3:53 PM 89.1 °F 98.0 °F 73.9 °F 61% 30.08 in 10.0 mi SW 10.4 mph - N/A   Mostly Cloudy
4:29 PM 84.2 °F 90.9 °F 73.4 °F 70% 30.12 in 5.0 mi SE 12.7 mph 20.7 mph 0.00 in Rain , Thunderstorm Light Thunderstorms and Rain
4:32 PM 80.6 °F 85.4 °F 73.4 °F 79% 30.13 in 0.8 mi SSE 15.0 mph 20.7 mph 0.00 in Rain , Thunderstorm Light Thunderstorms and Rain
4:38 PM 75.2 °F - 73.4 °F 94% 30.14 in 0.8 mi South 8.1 mph 26.5 mph 0.42 in Rain , Thunderstorm Heavy Thunderstorms and Rain
4:53 PM 75.0 °F - 73.0 °F 94% 30.12 in 0.8 mi Calm Calm - 0.89 in Rain , Thunderstorm Light Thunderstorms and Rain
5:09 PM 75.2 °F - 71.6 °F 89% 30.09 in 8.0 mi Variable 3.5 mph - 0.03 in Rain , Thunderstorm Light Thunderstorms and Rain
5:34 PM 75.2 °F - 71.6 °F 89% 30.08 in 10.0 mi Calm Calm - 0.03 in   Overcast
5:53 PM 75.9 °F - 73.0 °F 91% 30.12 in 10.0 mi East 4.6 mph - 0.03 in   Overcast
6:53 PM 75.9 °F - 72.0 °F 87% 30.12 in 10.0 mi NE 6.9 mph - N/A   Overcast
7:53 PM 73.9 °F - 70.0 °F 87% 30.14 in 10.0 mi NNE 4.6 mph - 0.00 in   Overcast
8:53 PM 75.0 °F - 70.0 °F 84% 30.17 in 10.0 mi NW 8.1 mph - N/A   Overcast
9:53 PM 73.9 °F - 71.1 °F 91% 30.16 in 5.0 mi NNE 5.8 mph - 0.02 in Rain Light Rain
10:53 PM 73.9 °F - 72.0 °F 93% 30.15 in 4.0 mi NE 5.8 mph - 0.00 in   Scattered Clouds
11:53 PM 73.9 °F - 71.1 °F 91% 30.15 in 5.0 mi East 4.6 mph - N/A   Scattered Clouds